Location: Unspecified
(51.0950°N, 12.9690°E)
Time: 15:26:11
(UTC+00:00)

GENESIS II - Pass Details

Date: 28 October 2021
Orbit: 494 x 529 km, 64.5° (Epoch: 26 November)

Event Time Altitude Azimuth Distance (km) Brightness Sun altitude
Rises 16:35:37 0° 316° (NW) 2,635 8.3 -7.8°
Reaches altitude 10° 16:37:48 10° 315° (NW) 1,751 7.4 -8.2°
Maximum altitude 16:41:42 72° 231° (SW) 551 4.5 -8.8°
Drops below altitude 10° 16:45:38 10° 147° (SSE) 1,758 6.7 -9.4°
Sets 16:47:49 0° 146° (SE) 2,647 7.6 -9.7°
